Regional Weather Roundup
Issued by NWS Cleveland, OH

Home | Current Version | Previous Version | Graphics & Text | Print | Product List | Glossary On
Versions: 1 2 3 4 5 6 7 8 9 10 11 12 13 14 15 16 17 18 19 20 21 22 23 24 25 26 27 28 29 30 31 32 33 34 35 36 37 38 39 40 41 42 43 44 45 46 47 48 49 50
877
ASUS41 KCLE 010200
RWRCLE
OHIO REGIONAL WEATHER ROUNDUP
NATIONAL WEATHER SERVICE WILMINGTON, OH
1000 PM EDT FRI SEP 30 2016

NOTE: "FAIR" INDICATES FEW OR NO CLOUDS BELOW 12,000 FEET WITH NO
SIGNIFICANT WEATHER AND/OR OBSTRUCTIONS TO VISIBILITY.

OHZ001>008-015>018-024>027-034-035-043-044-010300-
   NORTHWEST OHIO

CITY           SKY/WX    TMP DP  RH WIND       PRES   REMARKS
DEFIANCE       CLOUDY    61  57  87 NE7       30.04F
FINDLAY        CLOUDY    62  57  83 E10       30.04S
TOLEDO EXPRESS CLOUDY    60  60 100 E7        30.06F
TOLEDO EXEC    CLOUDY    62  60  93 E8        30.07F
LIMA           CLOUDY    60  60 100 E8        30.03F
$$

OHZ009>014-019>023-028>033-038-089-010300-
   NORTHEAST OHIO

CITY           SKY/WX    TMP DP  RH WIND       PRES   REMARKS
CLE-HOPKINS    CLOUDY    61  55  81 SE8       30.11F
CLE-LAKEFRONT  CLOUDY    62  56  80 E8        30.09S
CUY CO. ARPT   CLOUDY    61  59  94 SE9       30.10S
LORAIN-ELYRIA  CLOUDY    59  55  87 SE8       30.09S
ASHTABULA      CLOUDY    59  56  89 SE9       30.13F
AKRON-CANTON   CLOUDY    59  55  87 E10       30.09S
WOOSTER        NOT AVBL
MANSFIELD      CLOUDY    60  58  92 E12       30.06F
YOUNGSTOWN     CLOUDY    58  54  86 E10       30.11S
$$

OHZ042-051>053-060>062-070>072-077>081-010300-
  SOUTHWEST OHIO

CITY           SKY/WX    TMP DP  RH WIND       PRES   REMARKS
CINC-COVINGTON CLOUDY    58  54  86 CALM      30.02S
CINC-LUNKEN    FAIR      56  56 100 CALM      30.03S
HAMILTON       FAIR      54  52  93 CALM      30.03S
DAYTON         NOT AVBL
WRIGHT-PAT AFB NOT AVBL
DAYTON GENERAL CLOUDY    58  54  86 S5        30.02R
WILMINGTON     MOCLDY    56  55  97 SE3       30.03S
$$

OHZ036-037-039>041-045>050-054>059-063>069-073>076-082>088-010300-
  CENTRAL AND SOUTHEAST OHIO

CITY           SKY/WX    TMP DP  RH WIND       PRES   REMARKS
COLUMBUS       CLOUDY    62  62 100 E7        30.02R
OSU AIRPORT    CLOUDY    62  62 100 NE5       30.02S
BOLTON FIELD   NOT AVBL
RICKENBACK AFB NOT AVBL
NEWARK         CLOUDY    62  60  93 CALM      30.03S
MARION         FAIR      60  58  92 E8        30.04S
LANCASTER      LGT RAIN  62  61  96 CALM      30.03S FOG
ZANESVILLE     MOCLDY    62  59  90 E8        30.03F
NEW PHILLY     LGT RAIN  62  58  86 E8        30.07S
$$




USA.gov is the U.S. government's official web portal to all federal, state and local government web resources and services.